Starlink 36154

operational
NORAD ID: 66939 Int'l Des: 2025-286 Owner: SPXS Country: US Constellation: starlink
LEOCIRCULAR

Über Starlink 36154

Beschreibung wird geladen...

Live-Position

3D-Globus wird geladen...

Nächste Überflüge

Höhenverlauf

Altitude vs Time

uPlot chart will show altitude changes over time

Zweizeiliger Elementsatz

1 66939U 25286Q 25347.58336806 -.01265527 49123-3 -29222-2 0 9997
2 66939 53.1569 46.4044 0000915 57.2400 244.2299 15.96579532 2128
Epoch: 13. Dez. 2025 • Age: 20 hours

Aktueller Status

Höhe 295.3 km
Geschwindigkeit 7.74 km/s
Subsatellitenpunkt 52.44°N, 89.93°W
Startdatum 7. Dez. 2025
Alter 6 days
Typ internet

Technische Details

Klassifizierung Payload
Masse 575.00 kg
Trockenmasse 530.00 kg
Gesamtmasse 575.00 kg
Länge 0.30 m
Durchmesser 4.10 m
Spannweite 29.00 m
Form Box + pan
Hersteller SPXS
Bus-Typ Starlink V2MO
Phasenstatus In Orbit
Besitzer/Staat SPXS/US

Große Konstellationen

Loading constellations...